EW6304 Weather Reports


Display with metric or nautical units.
time (UTC)temp
F
wind
direction
speed
MPH
gust
MPH
rain 1hr
in
rain 24hr
in
rain mn
in
humidity
%
barometer
mb
20260505072847 48 54 0.0 2.0 0.00 0.00 0.00 91 1009.9
20260505072344 49 54 0.0 1.0 0.00 0.00 0.00 91 1010.0
20260505071845 49 54 0.0 1.0 0.00 0.00 0.00 91 1009.9
20260505071346 49 54 0.0 1.0 0.00 0.00 0.00 91 1009.9
20260505070850 49 54 0.0 2.0 0.00 0.00 0.00 90 1009.9
20260505070843 49 54 0.0 1.0 0.00 0.00 0.00 90 1010.0
20260505070502 49 54 0.0 2.0 0.00 0.00 0.00 90 1009.9
20260505070001 49 54 0.0 1.0 0.00 0.00 0.00 90 1009.9
20260505064843 49 54 0.0 3.0 0.00 0.00 0.00 90 1010.0
20260505064344 49 53 1.0 3.0 0.00 0.00 0.00 90 1010.1
20260505063843 49 92 1.0 2.0 0.00 0.00 0.00 89 1010.0
20260505063344 49 92 0.0 2.0 0.00 0.00 0.00 89 1010.0
20260505062844 49 92 0.0 2.0 0.00 0.00 0.00 89 1010.1
20260505062348 49 92 0.0 3.0 0.00 0.00 0.00 89 1010.1
20260505062343 49 92 0.0 3.0 0.00 0.00 0.00 89 1010.0
20260505061342 49 339 0.0 3.0 0.00 0.00 0.00 88 1010.0
20260505060841 50 90 0.0 1.0 0.00 0.00 0.00 88 1010.1
20260505060341 50 90 0.0 2.0 0.00 0.00 0.00 88 1010.1
20260505055841 50 90 1.0 3.0 0.00 0.00 0.00 88 1010.1
20260505055339 50 90 0.0 3.0 0.00 0.00 0.00 88 1010.1
20260505054840 50 90 0.0 1.0 0.00 0.00 0.00 88 1010.1
20260505054341 50 90 0.0 2.0 0.00 0.00 0.00 88 1010.0
20260505053839 50 90 1.0 2.0 0.00 0.00 0.00 87 1010.1
20260505053340 50 90 0.0 2.0 0.00 0.00 0.00 87 1010.1
20260505052847 50 36 1.0 3.0 0.00 0.00 0.00 87 1010.1
20260505052838 50 91 1.0 3.0 0.00 0.00 0.00 87 1010.0
20260505052339 50 91 1.0 3.0 0.00 0.00 0.00 87 1010.0
20260505051338 51 40 1.0 3.0 0.00 0.00 0.00 86 1010.1
20260505050836 51 40 1.0 3.0 0.00 0.00 0.00 87 1010.1
20260505050338 51 39 1.0 3.0 0.00 0.00 0.00 86 1010.2
20260505041335 51 44 0.0 2.0 0.00 0.00 0.00 84 1010.3
20260505040836 51 0 0.0 1.0 0.00 0.00 0.00 83 1010.3
20260505040334 51 0 0.0 3.0 0.00 0.00 0.00 83 1010.3
20260505035836 51 44 0.0 3.0 0.00 0.00 0.00 82 1010.3
20260505035336 52 46 1.0 3.0 0.00 0.00 0.00 82 1010.3
20260505034834 52 46 1.0 3.0 0.00 0.00 0.00 82 1010.2
20260505034335 52 76 1.0 3.0 0.00 0.00 0.00 81 1010.2
20260505033836 52 76 0.0 3.0 0.00 0.00 0.00 81 1010.2
20260505033336 52 83 1.0 3.0 0.00 0.00 0.00 81 1010.2
20260505032835 52 83 1.0 3.0 0.00 0.00 0.00 81 1010.2
20260505032334 52 83 1.0 3.0 0.00 0.00 0.00 80 1010.1
20260505031836 52 344 1.0 3.0 0.00 0.00 0.00 80 1010.1
20260505031336 52 344 1.0 3.0 0.00 0.00 0.00 80 1010.2
20260505030841 53 343 1.0 3.0 0.00 0.00 0.00 79 1010.4
20260505030835 53 343 1.0 2.0 0.00 0.00 0.00 79 1010.3
20260505025835 53 340 1.0 3.0 0.00 0.00 0.00 79 1010.4
20260505025336 53 45 1.0 3.0 0.00 0.00 0.00 78 1010.4
20260505024834 53 87 1.0 3.0 0.00 0.00 0.00 78 1010.4
20260505024335 53 85 1.0 4.0 0.00 0.00 0.00 77 1010.3
20260505023834 53 85 1.0 4.0 0.00 0.00 0.00 77 1010.3
20260505023335 54 85 1.0 3.0 0.00 0.00 0.00 76 1010.3
20260505022834 54 85 1.0 4.0 0.00 0.00 0.00 76 1010.3
20260505022334 54 15 1.0 4.0 0.00 0.00 0.00 75 1010.3
20260505021835 54 0 1.0 2.0 0.00 0.00 0.00 75 1010.4
20260505021344 54 0 1.0 3.0 0.00 0.00 0.00 74 1010.4
20260505021334 54 0 1.0 3.0 0.00 0.00 0.00 75 1010.4
20260505020334 55 0 1.0 3.0 0.00 0.00 0.00 74 1010.3
20260505015840 55 0 1.0 5.0 0.00 0.00 0.00 73 1010.3
20260505015834 55 0 1.0 4.0 0.00 0.00 0.00 74 1010.3
20260505015459 55 0 1.0 8.0 0.00 0.00 0.00 73 1010.4
20260505014335 55 0 1.0 8.0 0.00 0.00 0.00 72 1010.3
20260505013840 56 0 1.0 8.0 0.00 0.00 0.00 72 1010.1
20260505013834 55 0 1.0 5.0 0.00 0.00 0.00 72 1010.1
20260505012836 56 0 1.0 8.0 0.00 0.00 0.00 71 1010.1
20260505012335 56 0 1.0 5.0 0.00 0.00 0.00 71 1010.0
20260505011834 56 0 1.0 8.0 0.00 0.00 0.00 70 1009.8
20260505011336 56 0 1.0 8.0 0.00 0.00 0.00 70 1009.8
20260505010834 56 0 1.0 5.0 0.00 0.00 0.00 69 1009.7
20260505010340 56 0 1.0 4.0 0.00 0.00 0.00 68 1009.6
20260505010335 56 0 1.0 4.0 0.00 0.00 0.00 68 1009.7
20260505005451 57 0 1.0 5.0 0.00 0.00 0.00 66 1009.3
20260505005337 56 0 2.0 5.0 0.00 0.00 0.00 68 1009.5
20260505005332 56 0 1.0 5.0 0.00 0.00 0.00 67 1009.4
20260505003837 57 0 1.0 4.0 0.00 0.00 0.00 65 1009.1
20260505003832 57 0 1.0 5.0 0.00 0.00 0.00 66 1009.2
20260505002833 57 0 1.0 5.0 0.00 0.00 0.00 64 1008.9
20260505002340 58 0 2.0 5.0 0.00 0.00 0.00 62 1008.7
20260505002335 57 0 2.0 5.0 0.00 0.00 0.00 62 1008.8
20260505001333 58 0 1.0 3.0 0.00 0.00 0.00 62 1008.7
20260505000831 58 0 1.0 5.0 0.00 0.00 0.00 61 1008.6
20260505000338 58 0 2.0 6.0 0.00 0.00 0.00 60 1008.5
20260505000332 58 0 1.0 5.0 0.00 0.00 0.00 61 1008.5
20260504235335 59 0 2.0 5.0 0.00 0.00 0.00 59 1008.3
20260504235331 59 0 2.0 6.0 0.00 0.00 0.00 60 1008.4
20260504234330 60 0 2.0 5.0 0.00 0.00 0.00 58 1008.2
20260504233830 60 0 2.0 5.0 0.00 0.00 0.00 57 1008.2
20260504233331 60 0 1.0 5.0 0.00 0.00 0.00 57 1008.2
20260504232831 61 0 2.0 8.0 0.00 0.00 0.00 56 1008.1
20260504232331 61 0 2.0 9.0 0.00 0.00 0.00 55 1008.0
20260504231831 61 0 2.0 10.0 0.00 0.00 0.00 54 1007.7
20260504231331 62 0 2.0 10.0 0.00 0.00 0.00 53 1007.7
20260504230832 62 326 2.0 9.0 0.00 0.00 0.00 52 1007.6
20260504230331 63 263 2.0 9.0 0.00 0.00 0.00 52 1007.6
20260504225835 64 198 2.0 5.0 0.00 0.00 0.00 51 1007.4
20260504225831 63 129 2.0 4.0 0.00 0.00 0.00 51 1007.6
20260504225450 64 244 2.0 8.0 0.00 0.00 0.00 50 1007.3
20260504224949 64 92 3.0 8.0 0.00 0.00 0.00 50 1007.3
20260504223831 64 157 2.0 8.0 0.00 0.00 0.00 49 1007.1
20260504223330 65 0 2.0 8.0 0.00 0.00 0.00 49 1007.1
20260504222835 65 0 2.0 7.0 0.00 0.00 0.00 49 1007.0
20260504222830 65 0 2.0 9.0 0.00 0.00 0.00 51 1007.2
20260504222330 65 0 2.0 9.0 0.00 0.00 0.00 49 1007.1
20260504221336 66 75 3.0 11.0 0.00 0.00 0.00 49 1007.0
20260504221331 66 95 2.0 7.0 0.00 0.00 0.00 49 1007.0
20260504220331 66 47 3.0 11.0 0.00 0.00 0.00 48 1006.9
20260504215833 67 163 2.0 5.0 0.00 0.00 0.00 47 1006.8
20260504215329 67 121 2.0 9.0 0.00 0.00 0.00 48 1006.9
20260504214832 67 155 3.0 10.0 0.00 0.00 0.00 47 1007.0
20260504214335 68 84 3.0 9.0 0.00 0.00 0.00 45 1006.9
20260504214330 68 102 3.0 10.0 0.00 0.00 0.00 46 1006.9
20260504213330 69 31 2.0 5.0 0.00 0.00 0.00 44 1006.9
20260504212829 69 88 2.0 10.0 0.00 0.00 0.00 44 1006.8
20260504212329 69 71 2.0 10.0 0.00 0.00 0.00 43 1006.8
20260504211830 69 155 2.0 10.0 0.00 0.00 0.00 42 1006.7
20260504211329 69 53 2.0 8.0 0.00 0.00 0.00 42 1006.8
20260504210838 69 68 3.0 10.0 0.00 0.00 0.00 41 1006.7
20260504210831 69 82 2.0 10.0 0.00 0.00 0.00 43 1006.7
20260504205832 70 134 3.0 11.0 0.00 0.00 0.00 41 1006.6
20260504205330 70 197 3.0 11.0 0.00 0.00 0.00 40 1006.6
20260504204835 70 65 2.0 6.0 0.00 0.00 0.00 41 1006.5
20260504204830 70 36 2.0 6.0 0.00 0.00 0.00 40 1006.6
20260504203829 70 67 3.0 7.0 0.00 0.00 0.00 41 1006.5
20260504203331 70 68 3.0 12.0 0.00 0.00 0.00 41 1006.6
20260504202829 70 75 3.0 12.0 0.00 0.00 0.00 40 1006.5
20260504202330 70 51 3.0 10.0 0.00 0.00 0.00 41 1006.5
20260504201831 71 142 3.0 7.0 0.00 0.00 0.00 39 1006.5
20260504201331 71 127 3.0 9.0 0.00 0.00 0.00 37 1006.5
20260504200831 71 72 2.0 9.0 0.00 0.00 0.00 37 1006.5
20260504200331 72 296 2.0 9.0 0.00 0.00 0.00 35 1006.6
20260504195831 72 59 2.0 12.0 0.00 0.00 0.00 36 1006.5
20260504195329 72 263 3.0 12.0 0.00 0.00 0.00 34 1006.5
20260504194829 72 151 2.0 9.0 0.00 0.00 0.00 34 1006.6
20260504194329 73 44 2.0 7.0 0.00 0.00 0.00 36 1006.6
20260504193824 72 144 3.0 13.0 0.00 0.00 0.00 33 1006.7
20260504193326 72 355 4.0 13.0 0.00 0.00 0.00 32 1006.6
20260504193321 72 313 3.0 13.0 0.00 0.00 0.00 33 1006.6
20260504192941 72 252 3.0 13.0 0.00 0.00 0.00 32 1006.6
20260504191823 72 319 3.0 10.0 0.00 0.00 0.00 30 1006.6
20260504191323 73 342 4.0 12.0 0.00 0.00 0.00 31 1006.7
20260504190827 73 247 4.0 12.0 0.00 0.00 0.00 32 1006.7
20260504190822 72 312 4.0 12.0 0.00 0.00 0.00 31 1006.6
20260504185822 72 85 4.0 16.0 0.00 0.00 0.00 30 1006.8
20260504185323 73 51 3.0 16.0 0.00 0.00 0.00 32 1006.8
20260504184821 73 296 3.0 8.0 0.00 0.00 0.00 34 1006.8
20260504184322 73 80 3.0 11.0 0.00 0.00 0.00 31 1006.6
20260504183825 73 191 3.0 7.0 0.00 0.00 0.00 33 1007.0
20260504183820 73 270 3.0 11.0 0.00 0.00 0.00 29 1006.8
20260504182820 72 61 4.0 10.0 0.00 0.00 0.00 31 1007.0
20260504182319 72 317 4.0 13.0 0.00 0.00 0.00 32 1006.9
20260504181821 72 302 4.0 13.0 0.00 0.00 0.00 31 1007.1
20260504181319 72 284 4.0 12.0 0.00 0.00 0.00 33 1007.0
20260504180828 71 318 4.0 18.0 0.00 0.00 0.00 32 1007.2
20260504180821 72 258 3.0 12.0 0.00 0.00 0.00 31 1007.4
20260504175819 71 244 4.0 18.0 0.00 0.00 0.00 31 1007.3
20260504175320 71 120 4.0 11.0 0.00 0.00 0.00 30 1007.2
20260504174827 71 250 3.0 13.0 0.00 0.00 0.00 32 1007.1
20260504174821 71 336 4.0 13.0 0.00 0.00 0.00 31 1007.1
20260504173816 72 333 3.0 12.0 0.00 0.00 0.00 30 1006.9
20260504173323 72 72 3.0 12.0 0.00 0.00 0.00 33 1007.1
20260504173318 72 90 3.0 12.0 0.00 0.00 0.00 30 1007.0
20260504172317 72 267 3.0 11.0 0.00 0.00 0.00 32 1007.3
20260504171817 71 35 3.0 10.0 0.00 0.00 0.00 32 1007.0
20260504171319 72 192 4.0 14.0 0.00 0.00 0.00 34 1007.2
20260504170817 71 234 4.0 14.0 0.00 0.00 0.00 31 1007.1
20260504170318 71 278 4.0 16.0 0.00 0.00 0.00 34 1007.1
20260504160316 71 275 3.0 10.0 0.00 0.00 0.00 35 1008.0
20260504150814 68 9 3.0 12.0 0.00 0.00 0.00 37 1008.6
20260504150311 68 44 3.0 12.0 0.00 0.00 0.00 35 1008.5
20260504141309 66 177 2.0 7.0 0.00 0.00 0.00 42 1009.1
20260504140809 66 287 2.0 7.0 0.00 0.00 0.00 39 1009.2
20260504140317 65 340 3.0 10.0 0.00 0.00 0.00 44 1009.3
20260504140310 65 336 3.0 10.0 0.00 0.00 0.00 41 1009.3
20260504130810 60 320 3.0 8.0 0.00 0.00 0.00 47 1009.9
20260504130310 59 302 3.0 8.0 0.00 0.00 0.00 49 1009.9
20260504120311 53 0 2.0 7.0 0.00 0.00 0.00 56 1010.2
20260504120307 54 0 2.0 7.0 0.00 0.00 0.00 56 1010.1
20260504110302 46 282 0.0 1.0 0.00 0.00 0.00 67 1010.4
20260504100300 44 281 0.0 1.0 0.00 0.00 0.00 68 1010.2
20260504081752 43 281 0.0 1.0 0.00 0.00 0.00 71 1010.0
20260504081252 43 281 0.0 1.0 0.00 0.00 0.00 72 1010.0
20260504080758 43 281 0.0 0.0 0.00 0.00 0.00 70 1009.8
20260504080752 43 281 0.0 1.0 0.00 0.00 0.00 71 1009.9